Location: Bannatyne
(13.0833°N, 59.5333°W)
Time: 11:16:13
(UTC+00:00)

Explorer 7 - Pass Details

Date: 27 January 2020
Orbit: 485 x 679 km, 50.3° (Epoch: 25 February)

Event Time Altitude Azimuth Distance (km) Brightness Sun altitude
Rises 00:02:59 0° 232° (SW) 2,726 11.3 -30.4°
Reaches altitude 10° 00:05:23 10° 239° (WSW) 1,798 10.3 -31.0°
Enters shadow 00:07:15 23° 255° (WSW) 1,149 9.0 -31.5°
Maximum altitude 00:09:12 39° 309° (NW) 789 - -31.9°
Drops below altitude 10° 00:12:50 10° 19° (NNE) 1,707 - -32.8°
Sets 00:15:04 0° 28° (NNE) 2,570 - -33.3°
